EW6749 Weather Reports


time (UTC)temp
C
wind
direction
speed
KPH
gust
KPH
rain 1hr
cm
rain 24hr
cm
rain mn
cm
humidity
%
barometer
mb
20260504081036 9 282 1.6 4.8 0.00 0.00 0.00 86 1015.2
20260504050016 11 300 1.6 8.0 0.00 0.00 0.00 75 1014.8
20260504045037 11 277 0.0 3.2 0.00 0.00 0.00 74 1014.7
20260504044036 11 279 1.6 8.0 0.00 0.00 0.00 73 1014.5
20260504043016 12 304 1.6 4.8 0.00 0.00 0.00 71 1014.5
20260504042017 12 345 1.6 4.8 0.00 0.00 0.00 71 1014.3
20260504041017 12 349 3.2 9.7 0.00 0.00 0.00 70 1014.2
20260504040017 12 339 4.8 12.9 0.00 0.00 0.00 69 1014.1
20260504035018 12 328 4.8 17.7 0.00 0.00 0.00 71 1013.8
20260504034018 12 334 4.8 14.5 0.00 0.00 0.00 71 1013.8
20260504033018 12 352 3.2 11.3 0.00 0.00 0.00 70 1013.7
20260504032017 12 332 6.4 14.5 0.00 0.00 0.00 68 1013.4
20260504031018 13 330 6.4 14.5 0.00 0.00 0.00 67 1013.3
20260504030018 13 318 4.8 11.3 0.00 0.00 0.00 66 1013.3
20260504025018 13 351 3.2 9.7 0.00 0.00 0.00 65 1013.3
20260504024017 13 322 4.8 12.9 0.00 0.00 0.00 63 1013.1
20260504023015 14 327 3.2 9.7 0.00 0.00 0.00 63 1013.1
20260504022016 15 332 3.2 9.7 0.00 0.00 0.00 62 1013.0
20260504021016 15 327 3.2 8.0 0.00 0.00 0.00 61 1013.0
20260504020037 16 331 3.2 9.7 0.00 0.00 0.00 59 1013.0
20260504015016 16 316 1.6 4.8 0.00 0.00 0.00 58 1013.0
20260504014019 17 323 1.6 6.4 0.00 0.00 0.00 55 1013.1
20260504013017 18 333 3.2 9.7 0.00 0.00 0.00 52 1013.2
20260504012118 18 306 1.6 6.4 0.00 0.00 0.00 50 1013.2
20260504011017 19 308 4.8 11.3 0.00 0.00 0.00 49 1013.2
20260504010017 18 320 1.6 6.4 0.00 0.00 0.00 48 1013.2
20260504005018 18 0 3.2 11.3 0.00 0.00 0.00 48 1013.2
20260504004038 18 315 3.2 12.9 0.00 0.00 0.00 48 1013.2
20260504003018 18 318 1.6 6.4 0.00 0.00 0.00 48 1013.1
20260504002018 18 327 3.2 14.5 0.00 0.00 0.00 49 1013.0
20260504001056 18 336 4.8 9.7 0.00 0.00 0.00 49 1013.0
20260504000018 18 338 1.6 9.7 0.00 0.00 0.00 50 1012.9
20260503235016 18 323 4.8 11.3 0.00 0.00 0.00 50 1012.9
20260503234016 18 318 3.2 9.7 0.00 0.00 0.00 50 1012.9
20260503233016 18 333 3.2 11.3 0.00 0.00 0.00 52 1012.9
20260503232016 18 320 3.2 12.9 0.00 0.00 0.00 53 1013.1
20260503231037 18 336 3.2 12.9 0.00 0.00 0.00 54 1013.1
20260503230016 17 324 3.2 12.9 0.00 0.00 0.00 56 1013.1
20260503225017 18 333 4.8 12.9 0.00 0.00 0.00 56 1013.2
20260503224017 18 11 1.6 11.3 0.00 0.00 0.00 55 1013.3
20260503223038 18 28 1.6 11.3 0.00 0.00 0.00 53 1013.3
20260503222017 18 8 3.2 14.5 0.00 0.00 0.00 53 1013.3
20260503221021 18 325 3.2 11.3 0.00 0.00 0.00 54 1013.2
20260503220043 17 307 3.2 12.9 0.00 0.00 0.00 56 1013.2
20260503215017 17 329 1.6 8.0 0.00 0.00 0.00 57 1013.3
20260503214018 17 335 1.6 6.4 0.00 0.00 0.00 58 1013.4
20260503213018 17 327 1.6 9.7 0.00 0.00 0.00 58 1013.4
20260503212038 16 339 1.6 8.0 0.00 0.00 0.00 59 1013.4
20260503211036 17 316 4.8 14.5 0.00 0.00 0.00 58 1013.4
20260503210016 17 317 1.6 9.7 0.00 0.00 0.00 56 1013.4
20260503205015 17 318 1.6 6.4 0.00 0.00 0.00 57 1013.4
20260503204016 17 326 3.2 12.9 0.00 0.00 0.00 57 1013.4
20260503203017 18 303 3.2 11.3 0.00 0.00 0.00 55 1013.4
20260503202017 18 75 3.2 9.7 0.00 0.00 0.00 54 1013.5
20260503201018 18 7 1.6 9.7 0.00 0.00 0.00 54 1013.6
20260503200017 18 320 1.6 11.3 0.00 0.00 0.00 55 1013.6
20260503195017 17 325 1.6 4.8 0.00 0.00 0.00 56 1013.6
20260503194037 17 327 1.6 4.8 0.00 0.00 0.00 56 1013.6
20260503193018 17 328 3.2 9.7 0.00 0.00 0.00 56 1013.6
20260503192038 17 54 1.6 4.8 0.00 0.00 0.00 57 1013.7
20260503191018 17 319 3.2 11.3 0.00 0.00 0.00 57 1013.6
20260503190018 17 21 3.2 11.3 0.00 0.00 0.00 56 1013.7
20260503185015 17 314 1.6 6.4 0.00 0.00 0.00 55 1013.6
20260503184016 17 19 3.2 11.3 0.00 0.00 0.00 56 1013.7
20260503183019 16 33 1.6 6.4 0.00 0.00 0.00 61 1013.8
20260503182015 15 332 1.6 6.4 0.00 0.00 0.00 64 1013.8
20260503181016 15 304 3.2 12.9 0.00 0.00 0.00 65 1013.8
20260503180016 15 332 3.2 6.4 0.00 0.00 0.00 63 1013.8
20260503175036 15 311 4.8 12.9 0.00 0.00 0.00 66 1013.8
20260503174016 14 310 3.2 8.0 0.00 0.00 0.00 69 1013.7
20260503173016 13 305 1.6 8.0 0.00 0.00 0.00 73 1013.7
20260503172017 13 314 1.6 6.4 0.00 0.00 0.00 76 1013.8
20260503171017 13 322 3.2 8.0 0.00 0.00 0.00 79 1013.8
20260503131018 11 319 1.6 4.8 0.00 0.00 0.00 79 1012.0